Home   Weather   Township of Paris   Past weeks
Flag for USA

Past Weather in Township of Paris, Kansas, USA — Yesterday and Last 2 Weeks

Now
44 °F

Clear.


Feels Like: 42 °F
Forecast: 66 / 38 °F
Wind: 5 mph from South

Location: Lee's Summit Municipal Airport

Current Time: Oct 17, 2019 at 3:18:54 am

Latest Report: Oct 17, 2019 at 1:53 am


Visibility: 10 mi

Pressure: 30.08 "Hg

Humidity: 79%

Dew Point: 38 °F

Location of Township of ParisLocation

Past Weather in Township of Paris — Graph

°F

Township of Paris Temperature Yesterday

Maximum temperature yesterday: 55 °F (at 3:53 pm)
Minimum temperature yesterday: 41 °F (at 4:53 am)
Average temperature yesterday: 47 °F

High & Low Weather Summary for the Past Weeks

 TemperatureHumidityPressure
High87 °F (Oct 2, 3:53 pm)93% (Oct 3, 12:53 am)30.36 "Hg (Oct 3, 12:53 am)
Low34 °F (Oct 12, 2:53 am)28% (Oct 7, 3:53 pm)29.71 "Hg (Oct 10, 3:53 pm)
Average57 °F68%30.05 "Hg
* Reported Oct 2 1:53 am — Oct 17 1:53 am, Township of Paris. Weather by CustomWeather, © 2019

Note: Actual official high and low records may vary slightly from our data, if they occured in-between our weather recording intervals... More about our weather records

Advertising

Township of Paris Weather History for the Previous 24 Hours

Scroll right to see more
 ConditionsComfort  
Time TempWeatherWind HumidityBarometerVisibility
1:53 am
Thu, Oct 17
44 °FClear.5 mph79%30.08 "Hg10 mi
12:53 am44 °FClear.7 mph76%30.09 "Hg10 mi
11:53 pm
Wed, Oct 16
45 °FClear.5 mph76%30.10 "Hg10 mi
10:53 pm47 °FClear.3 mph71%30.11 "Hg10 mi
9:53 pm47 °FClear.5 mph71%30.10 "Hg10 mi
8:53 pm48 °FClear.5 mph66%30.11 "Hg10 mi
7:53 pm51 °FClear.5 mph59%30.12 "Hg10 mi
6:53 pm53 °FClear.No wind55%30.13 "Hg10 mi
5:53 pm55 °FSunny.5 mph53%30.13 "Hg10 mi
4:53 pm55 °FSunny.5 mph53%30.14 "Hg10 mi
3:53 pm55 °FSunny.No wind53%30.15 "Hg10 mi
2:53 pm54 °FPassing clouds.8 mph53%30.17 "Hg10 mi
1:53 pm53 °FPartly sunny.7 mph56%30.19 "Hg10 mi
12:53 pm49 °FPartly sunny.8 mph61%30.22 "Hg10 mi
11:53 am48 °FOvercast.7 mph63%30.23 "Hg10 mi
10:53 am47 °FOvercast.10 mph66%30.23 "Hg10 mi
9:53 am46 °FOvercast.16 mph66%30.23 "Hg10 mi
8:53 am46 °FOvercast.10 mph66%30.19 "Hg10 mi
7:53 am44 °FOvercast.12 mph71%30.18 "Hg10 mi
6:53 am43 °FOvercast.7 mph74%30.18 "Hg10 mi
5:53 am42 °FOvercast.7 mph76%30.18 "Hg10 mi
5:26 am41 °FPassing clouds.6 mph74%30.17 "Hg10 mi
4:53 am41 °FClear.7 mph74%30.17 "Hg10 mi
3:53 am42 °FClear.7 mph71%30.16 "Hg10 mi
Weather by CustomWeather, © 2019

See weather overview